Hourly Data Report for July 27, 2021

WIARTON A
ONTARIO
Current Station Operator: NAVCAN

44°44'39.000" N
81°06'31.000" W
221.90 m
6119499
71633
YVV

Download Data

Hourly Data (July 2021)
Hourly Data Report for July 27, 2021
TIME
LST
Temp Definition
°C
Dew Point Definition
°C
Rel Hum Definition
%
Precip. Amount Definition
mm

Wind Dir Definition
10's deg

Wind Spd Definition
km/h
Visibility Definition
km
Stn Press Definition
kPa
Hmdx Definition


Wind Chill Definition


Weather Definition


00:00 15.8 15.0 95   19 8 24.1 98.77     LegendNANA
01:00 15.4 14.6 95   17 8 24.1 98.78     Clear
02:00 16.6 15.0 90   16 8 19.3 98.78     LegendNANA
03:00 15.6 14.8 95   15 10 19.3 98.72     LegendNANA
04:00 17.3 14.4 83   18 10 24.1 98.63     Cloudy
05:00 18.8 14.0 73   20 12 24.1 98.65     LegendNANA
06:00 17.7 15.4 86   3 9 16.1 98.79     Thunderstorms,Rain Showers
07:00 17.8 17.3 97   9 7 9.7 98.86     Rain Showers, Fog
08:00 18.3 17.6 96   11 16 19.3 98.71     LegendNANA
09:00 18.1 17.4 96   12 9 24.1 98.70     LegendNANA
10:00 18.5 18.0 97   33 4 24.1 98.80     Cloudy
11:00 20.4 19.2 93   27 10 24.1 98.82 27   LegendNANA
12:00 21.8 17.4 76   31 11 24.1 98.86 27   LegendNANA
13:00 22.3 17.1 72   31 11 24.1 98.89 28   Mainly Clear
14:00 23.1 18.1 73   34 7 24.1 98.87 29   LegendNANA
15:00 23.5 17.4 68   34 8 24.1 98.87 29   LegendNANA
16:00 23.7 15.8 61   4 12 16.1 98.87 28   Clear
17:00 22.7 17.5 72   4 11 16.1 98.91 28   LegendNANA
18:00 20.8 17.7 82   34 6 19.3 98.97 27   LegendNANA
19:00 20.5 16.7 79   0 1 19.3 98.96 26   Clear
20:00 17.9 17.7 98   36 2 16.1 98.99     LegendNANA
21:00 16.6 16.5 99   11 5 19.3 99.04     LegendNANA
22:00 15.9 15.9 100   13 5 24.1 99.05     Clear
23:00 15.0 15.0 100   11 5 24.1 99.07     LegendNANA

Notes on Data Quality.

Legend

  • E = Estimated
  • M = Missing
  • NA = Not Available*
  • [empty] = Indicates an unobserved value
Date modified: